Preview of NWS' New Version of Forecast
This preview is not operational and should not be used for support decisions.

Regional Weather Roundup (RWR)

Issued by National Weather Service (NWS)

                            
565 
ASUS46 KSEW 212310
RWRWA 

WASHINGTON REGIONAL WEATHER ROUNDUP
NATIONAL WEATHER SERVICE SEATTLE WA
400 PM PDT THU JUN 21 2018

NOTE:"FAIR" INDICATES FEW OR NO CLOUDS BELOW 12,000 FEET WITH NO 
SIGNIFICANT WEATHER AND/OR OBSTRUCTIONS TO VISIBILITY.

WAZ507-509-555>559-220000-
SEATTLE, TACOMA, EVERETT, AND VICINITY
  
CITY           SKY/WX    TMP DP  RH WIND       PRES   REMARKS
EVERETT        MOSUNNY   66  53  63 S10       30.14F                  
BOEING FIELD   PTSUNNY   70  53  54 VRB7      30.13F                  
RENTON         CLOUDY    69  53  56 S7        30.13F                  
SEATAC AIRPORT CLOUDY    68  53  58 SW10      30.14F                  
JBLM-MCCHORD   CLOUDY    67  58  72 W9        30.15S                  
PUYALLUP       CLOUDY    68  57  68 W5        30.15S                  
BREMERTON      CLOUDY    63  54  72 S7        30.15S                  
JBLM-FT LEWIS  CLOUDY    67  57  71 SW12      30.14S                  
TACOMA NARROWS CLOUDY    64  52  64 VRB7      30.15F                  
$$
 
WAZ001-503-506-510-514-515-220000-
NORTH INTERIOR
  
CITY           SKY/WX    TMP DP  RH WIND       PRES   REMARKS
BELLINGHAM     SUNNY     65  54  67 S13       30.10F                  
FRIDAY HARBOR  SUNNY     70  53  54 S16G25    30.12F                  
EASTSOUND      SUNNY     66  54  63 S12G18    30.08F                  
PORT ANGELES   SUNNY     63  52  67 NW13G20   30.13F                  
EDIZ HOOK      NOT AVBL                                               
PORT TOWNSEND  CLOUDY    64  55  72 CALM      30.13F                  
NAS WHIDBEY    PTSUNNY   64  52  64 W13       30.16F                  
ARLINGTON      MOSUNNY   70  55  59 S12       30.12F                  
BURLINGTON     MOSUNNY   70  55  60 S15       30.11F                  
$$
 
WAZ020-022-039-040-504-511-512-220000-
SOUTHWEST INTERIOR
  
CITY           SKY/WX    TMP DP  RH WIND       PRES   REMARKS
SHELTON        CLOUDY    65  53  65 W13       30.12S                  
OLYMPIA        CLOUDY    64  52  64 SW10      30.15S                  
CHEHALIS       CLOUDY    68  57  68 VRB3G12   30.16S                  
KELSO          CLOUDY    67  55  65 VRB6      30.16S                  
VANCOUVER      CLOUDY    68  58  70 NW6       30.14S                  
SCAPPOOSE, OR  CLOUDY    67  57  70 CALM      30.14S                  
PORTLAND, OR   CLOUDY    69  55  60 CALM      30.14S                  
$$
 
WAZ021-516-517-220000-
WASHINGTON COAST
  
CITY           SKY/WX    TMP DP  RH WIND       PRES   REMARKS
FORKS          CLOUDY    59  52  77 W10       30.18S                  
HOQUIAM        CLOUDY    64  55  72 SW12      30.18S                  
ASTORIA, OR    CLOUDY    64  54  69 W10       30.18R                  
$$
 
WAZ019-023-024-040-567>569-220000-
CASCADE MOUNTAINS AND COLUMBIA GORGE
  
CITY           SKY/WX    TMP DP  RH WIND       PRES   REMARKS
STAMPEDE PASS  SUNNY     62  53  72 SW8       30.16R                  
TROUTDALE, OR  CLOUDY    70  56  61 NW5       30.13F                  
HOOD RIVER, OR CLEAR     72  54  53 W18G29    30.03F                  
THE DALLES, OR SUNNY     80  54  40 NW23G31   29.97F                  
$$

WAZ026-027-041>044-520-521-220000-
EAST SLOPES
  
CITY           SKY/WX    TMP DP  RH WIND       PRES   REMARKS
OMAK           CLOUDY    77  58  51 NW10      29.89S                  
WENATCHEE      PTSUNNY   89  40  17 NW17      29.87S                  
ELLENSBURG     MOSUNNY   85  46  25 NW25G35   29.95S                  
YAKIMA         MOSUNNY   88  52  29 W8        29.89F                  
SUNNYSIDE ARPT MOCLDY    69  39  33 SW5       29.88F                  
YAKIMA TC      CLEAR     93  40  15 NW14G20   29.89F                  
$$

WAZ028-034-035-220000-
COLUMBIA BASIN
  
CITY           SKY/WX    TMP DP  RH WIND       PRES   REMARKS
EPHRATA        PTSUNNY   89  50  26 SW13G20   29.88F                  
MOSES LAKE     PTSUNNY   89  48  24 SW9       29.90F                  
PASCO          PTSUNNY   91  54  28 S13G22    29.88F                  
RICHLAND ARPT  MOCLDY    94  52  24 SW12      29.86F HX  91           
HERMISTON, OR  MOSUNNY   96  50  20 W12G17    29.89F HX  93           
$$

WAZ036>038-220000-
NORTHEAST WASHINGTON
  
CITY           SKY/WX    TMP DP  RH WIND       PRES   REMARKS
SPOKANE GEIGER PTSUNNY   77  54  44 SW12      29.97F                  
SPOKANE FELTS  MOSUNNY   80  55  42 SW12      29.96F                  
FAIRCHILD AFB  MOSUNNY   78  55  44 SW12      29.97F                  
COEURDALENE,ID MOSUNNY   74  58  57 S8        29.98F                  
DEER PARK      MOSUNNY   78  56  46 SW9G18    29.96F                  
$$

WAZ029>033-220000-
SOUTHEAST WASHINGTON
  
CITY           SKY/WX    TMP DP  RH WIND       PRES   REMARKS
PULLMAN        PTSUNNY   73  59  61 SW10      30.03S                  
LEWISTON, ID   PTSUNNY   77  57  50 S7        29.97F                  
WALLA WALLA    PTSUNNY   85  55  35 S8        29.93F                  
PENDLETON, OR  PTSUNNY   85  49  28 NW12      29.94F                  
$$